KD0RXN-4 Weather Reports


time (UTC)temp
C
wind
direction
speed
KPH
gust
KPH
rain 1hr
cm
rain 24hr
cm
rain mn
cm
humidity
%
barometer
mb
20240723045019 22 74 0.0 0.0 0.00 0.00 0.00 83 1015.9
20240723044523 22 74 0.0 0.0 0.00 0.00 0.00 83 1016.0
20240723044049 22 74 0.0 0.0 0.00 0.00 0.00 83 1015.9
20240723043533 22 74 0.0 0.0 0.00 0.00 0.00 83 1016.0
20240723043019 22 74 0.0 0.0 0.00 0.00 0.00 83 1016.0
20240723042523 22 74 0.0 0.0 0.00 0.00 0.00 83 1016.0
20240723042028 22 74 0.0 0.0 0.00 0.00 0.00 82 1016.0
20240723041517 22 74 0.0 0.0 0.00 0.00 0.00 81 1016.1
20240723041043 22 74 0.0 0.0 0.00 0.00 0.00 81 1016.1
20240723040548 22 74 0.0 0.0 0.00 0.00 0.00 80 1016.0
20240723040031 22 74 0.0 0.0 0.00 0.00 0.00 80 1016.0
20240723035536 23 74 0.0 0.0 0.00 0.00 0.00 79 1016.0
20240723035021 23 74 0.0 0.0 0.00 0.00 0.00 79 1016.0
20240723034526 23 74 0.0 0.0 0.00 0.00 0.00 78 1015.9
20240723034030 23 74 0.0 0.0 0.00 0.00 0.00 78 1015.9
20240723033535 23 74 0.0 0.0 0.00 0.00 0.00 78 1015.8
20240723033041 23 74 0.0 0.0 0.00 0.00 0.00 78 1015.8
20240723032545 23 74 0.0 0.0 0.00 0.00 0.00 78 1015.8
20240723032029 23 74 0.0 0.0 0.00 0.00 0.00 78 1015.8
20240723031534 23 74 0.0 0.0 0.00 0.00 0.00 78 1015.8
20240723031023 23 74 0.0 0.0 0.00 0.00 0.00 78 1015.6
20240723030547 23 74 0.0 0.0 0.00 0.00 0.00 78 1015.8
20240723030032 23 74 0.0 0.0 0.00 0.00 0.00 78 1015.6
20240723025537 23 74 0.0 0.0 0.00 0.00 0.00 78 1015.6
20240723025022 23 74 0.0 0.0 0.00 0.00 0.00 79 1015.5
20240723024527 23 74 0.0 0.0 0.00 0.00 0.00 78 1015.5
20240723024031 23 74 0.0 0.0 0.00 0.00 0.00 78 1015.5
20240723023537 23 74 0.0 0.0 0.00 0.00 0.00 78 1015.4
20240723023022 23 74 0.0 0.0 0.00 0.00 0.00 78 1015.4
20240723022527 23 74 0.0 0.0 0.00 0.00 0.00 77 1015.3
20240723022030 23 74 0.0 0.0 0.00 0.00 0.00 76 1015.2
20240723021535 23 74 0.0 0.0 0.00 0.00 0.00 75 1015.1
20240723021024 23 74 0.0 0.0 0.00 0.00 0.00 75 1015.0
20240723020530 24 74 0.0 0.0 0.00 0.00 0.00 75 1014.9
20240723020035 24 74 0.0 0.0 0.00 0.00 0.00 74 1014.8
20240723015521 24 74 0.0 0.0 0.00 0.00 0.00 73 1014.8
20240723015046 24 74 0.0 0.0 0.00 0.00 0.00 73 1014.7
20240723014530 25 74 0.0 0.0 0.00 0.00 0.00 71 1014.6
20240723014057 25 74 0.0 0.0 0.00 0.00 0.00 70 1014.6
20240723013540 25 74 0.0 0.0 0.00 0.00 0.00 70 1014.5
20240723013045 25 74 0.0 0.0 0.00 0.00 0.00 69 1014.5
20240723012529 26 74 0.0 0.0 0.00 0.00 0.00 68 1014.4
20240723012034 26 74 0.0 0.0 0.00 0.00 0.00 67 1014.4
20240723011519 26 74 0.0 0.0 0.00 0.00 0.00 66 1014.3
20240723011044 26 74 0.0 0.0 0.00 0.00 0.00 65 1014.3
20240723010527 26 74 0.0 0.0 0.00 0.00 0.00 65 1014.4
20240723010033 26 74 0.0 0.0 0.00 0.00 0.00 64 1014.3
20240723005523 26 74 0.0 0.0 0.00 0.00 0.00 64 1014.3
20240723005028 26 74 0.0 0.0 0.00 0.00 0.00 63 1014.2
20240723004533 27 74 0.0 0.0 0.00 0.00 0.00 63 1014.2
20240723004019 27 74 0.0 0.0 0.00 0.00 0.00 63 1014.2
20240723003524 27 74 0.0 0.0 0.00 0.00 0.00 62 1014.1
20240723003029 27 74 0.0 0.0 0.00 0.00 0.00 61 1014.1
20240723002533 27 76 0.0 0.0 0.00 0.00 0.00 62 1014.0
20240723002018 27 73 0.0 0.0 0.00 0.00 0.00 61 1014.0
20240723001524 27 73 0.0 0.0 0.00 0.00 0.00 61 1013.9
20240723001029 27 74 0.0 0.0 0.00 0.00 0.00 61 1013.9
20240723000518 27 65 0.0 0.0 0.00 0.00 0.00 60 1013.9
20240723000044 27 62 0.0 0.0 0.00 0.00 0.00 60 1013.9
20240722235548 27 77 0.0 0.0 0.00 0.00 0.00 58 1013.8
20240722235031 27 46 0.0 0.0 0.00 0.00 0.00 58 1013.9
20240722234557 27 51 0.0 0.0 0.00 0.00 0.00 57 1013.8
20240722234021 27 48 0.0 0.0 0.00 0.00 0.00 57 1013.7
20240722233526 27 44 0.0 0.0 0.00 0.00 0.00 58 1013.8
20240722233051 27 93 0.0 0.0 0.00 0.00 0.00 59 1013.8
20240722232555 27 71 0.0 0.0 0.00 0.00 0.00 58 1013.7
20240722232039 27 78 0.0 0.0 0.00 0.00 0.00 58 1013.7
20240722231543 27 67 0.0 0.0 0.00 0.00 0.00 58 1013.8
20240722231028 27 90 0.0 0.0 0.00 0.00 0.00 57 1013.8
20240722230533 27 46 0.0 0.0 0.00 0.00 0.00 58 1013.7
20240722230018 27 92 0.0 0.0 0.00 0.00 0.00 58 1013.7
20240722225522 28 57 0.0 0.0 0.00 0.00 0.00 58 1013.7
20240722225049 27 355 0.0 0.0 0.00 0.00 0.00 59 1013.8
20240722224533 27 76 0.0 0.0 0.00 0.00 0.00 58 1013.8
20240722224022 27 78 0.0 0.0 0.00 0.00 0.00 58 1013.8
20240722223548 27 93 0.0 0.0 0.00 0.00 0.00 57 1013.9
20240722223032 27 76 0.0 0.0 0.00 0.00 0.00 57 1014.0
20240722222519 27 59 0.0 0.0 0.00 0.00 0.00 56 1014.1
20240722222043 27 62 0.0 0.0 0.00 0.00 0.00 58 1014.1
20240722221548 27 43 0.0 0.0 0.00 0.00 0.00 60 1014.2
20240722221032 27 74 0.0 0.0 0.00 0.00 0.00 59 1014.2
20240722220558 27 80 0.0 1.6 0.00 0.00 0.00 60 1014.2
20240722220022 27 89 0.0 0.0 0.00 0.00 0.00 61 1014.2
20240722215525 27 69 0.0 0.0 0.00 0.00 0.00 61 1014.2
20240722215049 27 57 0.0 1.6 0.00 0.00 0.00 61 1014.2
20240722214533 27 51 0.0 1.6 0.00 0.00 0.00 61 1014.3
20240722214018 28 70 0.0 1.6 0.00 0.00 0.00 60 1014.3
20240722213543 28 49 0.0 0.0 0.00 0.00 0.00 58 1014.4
20240722213046 28 102 0.0 0.0 0.00 0.00 0.00 58 1014.4
20240722212530 28 59 0.0 0.0 0.00 0.00 0.00 57 1014.5
20240722212019 28 80 0.0 0.0 0.00 0.00 0.00 57 1014.6
20240722211524 28 44 0.0 0.0 0.00 0.00 0.00 57 1014.7
20240722211030 28 146 0.0 0.0 0.00 0.00 0.00 59 1014.8
20240722210555 28 48 0.0 0.0 0.00 0.00 0.00 59 1014.8
20240722210017 28 66 0.0 0.0 0.00 0.00 0.00 58 1014.9
20240722205522 28 38 0.0 0.0 0.00 0.00 0.00 59 1015.0
20240722205028 28 43 0.0 0.0 0.00 0.00 0.00 59 1015.0
20240722204533 28 77 0.0 1.6 0.00 0.00 0.00 58 1015.0
20240722204018 28 40 0.0 1.6 0.00 0.00 0.00 56 1015.0
20240722203524 28 67 0.0 0.0 0.00 0.00 0.00 55 1015.1
20240722203029 28 80 0.0 0.0 0.00 0.00 0.00 55 1015.2
20240722202519 28 76 0.0 0.0 0.00 0.00 0.00 56 1015.2
20240722202023 28 67 0.0 0.0 0.00 0.00 0.00 54 1015.3
20240722201529 28 36 0.0 0.0 0.00 0.00 0.00 57 1015.4
20240722201034 28 98 0.0 0.0 0.00 0.00 0.00 60 1015.4
20240722200519 28 40 0.0 0.0 0.00 0.00 0.00 60 1015.5
20240722200044 27 44 0.0 0.0 0.00 0.00 0.00 62 1015.5
20240722195530 27 9 0.0 0.0 0.00 0.00 0.00 63 1015.6
20240722195035 27 76 0.0 0.0 0.00 0.00 0.00 62 1015.6
20240722194520 27 68 0.0 0.0 0.00 0.00 0.00 62 1015.8
20240722194025 27 55 0.0 0.0 0.00 0.00 0.00 62 1015.7
20240722193530 27 85 0.0 0.0 0.00 0.00 0.00 61 1015.9
20240722193019 27 71 0.0 0.0 0.00 0.00 0.00 60 1015.9
20240722192525 27 98 0.0 0.0 0.00 0.00 0.00 60 1015.9
20240722192029 27 78 0.0 0.0 0.00 0.00 0.00 59 1015.9
20240722191535 27 77 0.0 0.0 0.00 0.00 0.00 57 1015.9
20240722191040 27 55 0.0 0.0 0.00 0.00 0.00 58 1016.0
20240722190524 28 60 0.0 1.6 0.00 0.00 0.00 57 1016.1
20240722190030 28 64 0.0 0.0 0.00 0.00 0.00 58 1016.1
20240722185535 27 91 0.0 0.0 0.00 0.00 0.00 58 1016.1
20240722185020 27 255 0.0 0.0 0.00 0.00 0.00 59 1016.2
20240722184525 27 56 0.0 0.0 0.00 0.00 0.00 58 1016.3
20240722184030 27 92 0.0 0.0 0.00 0.00 0.00 62 1016.3
20240722183520 26 71 0.0 4.8 0.00 0.00 0.00 63 1016.3
20240722183024 26 59 0.0 4.8 0.00 0.00 0.00 63 1016.3
20240722182549 26 134 0.0 1.6 0.00 0.00 0.00 62 1016.4
20240722182054 26 84 0.0 1.6 0.00 0.00 0.00 62 1016.5
20240722181537 26 84 0.0 0.0 0.00 0.00 0.00 61 1016.5
20240722181023 27 71 0.0 0.0 0.00 0.00 0.00 60 1016.5
20240722180548 27 96 0.0 0.0 0.00 0.00 0.00 64 1016.6
20240722180033 27 40 0.0 0.0 0.00 0.00 0.00 67 1016.5
20240722175558 27 42 0.0 1.6 0.00 0.00 0.00 66 1016.6
20240722175042 26 40 0.0 1.6 0.00 0.00 0.00 69 1016.6
20240722174527 26 134 0.0 1.6 0.00 0.00 0.00 66 1016.6
20240722174033 26 86 0.0 0.0 0.00 0.00 0.00 66 1016.7
20240722173537 26 71 0.0 0.0 0.00 0.00 0.00 68 1016.7
20240722173021 26 20 0.0 0.0 0.00 0.00 0.00 72 1016.9
20240722172527 25 70 0.0 0.0 0.00 0.00 0.00 73 1016.9
20240722172035 25 73 0.0 0.0 0.00 0.00 0.00 76 1017.0
20240722171521 25 103 0.0 0.0 0.00 0.00 0.00 77 1017.0
20240722171025 25 284 0.0 0.0 0.00 0.00 0.00 79 1017.0
20240722170530 24 298 0.0 0.0 0.00 0.00 0.00 79 1017.1
20240722170036 25 298 0.0 0.0 0.00 0.00 0.00 80 1017.1
20240722165522 25 298 0.0 0.0 0.00 0.00 0.00 79 1017.1
20240722165047 25 298 0.0 0.0 0.00 0.00 0.00 78 1017.1
20240722164531 25 55 0.0 0.0 0.00 0.00 0.00 77 1017.1
20240722164036 25 51 0.0 0.0 0.00 0.00 0.00 74 1017.1
20240722163522 25 46 0.0 0.0 0.00 0.00 0.00 73 1017.1
20240722163019 24 45 0.0 0.0 0.00 0.00 0.00 73 1017.1
20240722162526 24 42 0.0 0.0 0.00 0.00 0.00 73 1017.1
20240722162033 24 76 0.0 0.0 0.00 0.00 0.00 72 1017.1
20240722161536 24 50 0.0 0.0 0.00 0.00 0.00 73 1017.2
20240722161023 24 57 0.0 0.0 0.00 0.00 0.00 73 1017.2
20240722160521 24 71 0.0 0.0 0.00 0.00 0.00 73 1017.2
20240722160045 24 82 0.0 0.0 0.00 0.00 0.00 73 1017.2
20240722155549 24 71 0.0 0.0 0.00 0.00 0.00 73 1017.2
20240722155055 24 42 0.0 0.0 0.00 0.00 0.00 74 1017.2
20240722154521 24 55 0.0 0.0 0.00 0.00 0.00 75 1017.1
20240722154027 23 181 0.0 0.0 0.00 0.00 0.00 76 1017.2
20240722153533 23 163 0.0 0.0 0.00 0.00 0.00 75 1017.2
20240722153019 23 75 0.0 0.0 0.00 0.00 0.00 76 1017.2
20240722152525 23 88 0.0 0.0 0.00 0.00 0.00 76 1017.2
20240722152036 23 159 0.0 0.0 0.00 0.00 0.00 77 1017.2
20240722151522 23 90 0.0 0.0 0.00 0.00 0.00 77 1017.2
20240722151028 23 161 0.0 0.0 0.00 0.00 0.00 77 1017.2
20240722150553 23 112 0.0 0.0 0.00 0.00 0.00 77 1017.1
20240722150017 23 148 0.0 0.0 0.00 0.00 0.00 76 1017.2
20240722145522 23 76 0.0 0.0 0.00 0.00 0.00 76 1017.2
20240722145028 23 95 0.0 0.0 0.00 0.00 0.00 76 1017.2
20240722144554 23 126 0.0 1.6 0.00 0.00 0.00 76 1017.3
20240722144018 23 70 0.0 1.6 0.00 0.00 0.00 76 1017.2
20240722143523 23 91 0.0 0.0 0.00 0.00 0.00 77 1017.2
20240722143028 23 107 0.0 0.0 0.00 0.00 0.00 77 1017.3
20240722142533 23 94 0.0 1.6 0.00 0.00 0.00 78 1017.3
20240722142041 23 73 0.0 1.6 0.00 0.00 0.00 78 1017.2
20240722141526 23 62 0.0 0.0 0.00 0.00 0.00 80 1017.2
20240722141050 22 85 0.0 1.6 0.00 0.00 0.00 80 1017.2
20240722140555 22 89 0.0 1.6 0.00 0.00 0.00 80 1017.2
20240722140019 22 87 0.0 0.0 0.00 0.00 0.00 81 1017.1
20240722135526 22 96 0.0 0.0 0.00 0.00 0.00 82 1017.0
20240722135031 22 107 0.0 0.0 0.00 0.00 0.00 83 1017.0
20240722134556 22 63 0.0 0.0 0.00 0.00 0.00 83 1017.0
20240722134020 21 82 0.0 0.0 0.00 0.00 0.00 84 1017.0
20240722133547 21 82 0.0 0.0 0.00 0.00 0.00 85 1017.0
20240722133032 21 94 0.0 0.0 0.00 0.00 0.00 86 1017.0
20240722132518 21 134 0.0 0.0 0.00 0.00 0.00 86 1016.8
20240722132025 20 94 0.0 0.0 0.00 0.00 0.00 88 1016.7
20240722131529 20 82 0.0 0.0 0.00 0.00 0.00 88 1016.7
20240722131019 20 81 0.0 0.0 0.00 0.00 0.00 88 1016.7
20240722130526 19 81 0.0 0.0 0.00 0.00 0.00 89 1016.7
20240722130033 19 74 0.0 0.0 0.00 0.00 0.00 89 1016.7
20240722125519 19 74 0.0 0.0 0.00 0.00 0.00 89 1016.6
20240722125045 18 75 0.0 0.0 0.00 0.00 0.00 89 1016.6
20240722124529 18 78 0.0 0.0 0.00 0.00 0.00 90 1016.6
20240722124035 18 78 0.0 0.0 0.00 0.00 0.00 89 1016.6
20240722123521 18 78 0.0 0.0 0.00 0.00 0.00 90 1016.6
20240722123048 18 97 0.0 0.0 0.00 0.00 0.00 90 1016.6
20240722122532 18 97 0.0 0.0 0.00 0.00 0.00 90 1016.6
20240722122018 18 97 0.0 0.0 0.00 0.08 0.00 90 1016.5
20240722121528 18 97 0.0 0.0 0.00 0.08 0.00 90 1016.5
20240722121034 18 97 0.0 0.0 0.00 0.08 0.00 90 1016.5
20240722120539 17 97 0.0 0.0 0.00 0.08 0.00 90 1016.5
20240722120025 17 97 0.0 0.0 0.00 0.08 0.00 90 1016.5
20240722115531 17 97 0.0 0.0 0.00 0.08 0.00 90 1016.4
20240722115018 17 97 0.0 0.0 0.00 0.08 0.00 90 1016.4
20240722114525 17 97 0.0 0.0 0.00 0.08 0.00 90 1016.4
20240722114031 17 97 0.0 0.0 0.00 0.08 0.00 90 1016.4
20240722113518 17 97 0.0 0.0 0.00 0.08 0.00 90 1016.4
20240722113044 17 97 0.0 0.0 0.00 0.08 0.00 90 1016.4
20240722112530 17 97 0.0 0.0 0.00 0.08 0.00 90 1016.4
20240722112020 17 97 0.0 0.0 0.00 0.08 0.00 90 1016.4
20240722111527 17 97 0.0 0.0 0.00 0.08 0.00 90 1016.4
20240722111033 17 97 0.0 0.0 0.00 0.08 0.00 90 1016.4
20240722110519 17 97 0.0 0.0 0.00 0.08 0.00 90 1016.3
20240722110025 17 97 0.0 0.0 0.00 0.08 0.00 90 1016.3
20240722105532 17 97 0.0 0.0 0.00 0.08 0.00 90 1016.2
20240722105018 17 97 0.0 0.0 0.00 0.08 0.00 90 1016.3
20240722104525 17 97 0.0 0.0 0.00 0.08 0.00 90 1016.2
20240722104031 17 97 0.0 0.0 0.00 0.08 0.00 90 1016.1
20240722103517 17 97 0.0 0.0 0.00 0.08 0.00 90 1016.0
20240722103027 17 97 0.0 0.0 0.00 0.08 0.00 89 1016.1
20240722102553 17 97 0.0 0.0 0.00 0.08 0.00 89 1016.0
20240722102018 17 97 0.0 0.0 0.00 0.18 0.00 89 1016.0
20240722101523 17 97 0.0 0.0 0.00 0.18 0.00 89 1015.9
20240722101049 17 97 0.0 0.0 0.00 0.18 0.00 89 1015.9
20240722100533 17 97 0.0 0.0 0.00 0.18 0.00 89 1015.9
20240722100018 17 97 0.0 0.0 0.00 0.18 0.00 89 1015.9
20240722095524 17 97 0.0 0.0 0.00 0.18 0.00 89 1015.8
20240722095029 17 97 0.0 0.0 0.00 0.18 0.00 89 1015.8
20240722094534 17 97 0.0 0.0 0.00 0.18 0.00 89 1015.7
20240722094019 17 97 0.0 0.0 0.00 0.18 0.00 89 1015.6
20240722093524 17 97 0.0 0.0 0.00 0.18 0.00 89 1015.6
20240722093034 17 97 0.0 0.0 0.00 0.18 0.00 89 1015.7
20240722092537 17 97 0.0 0.0 0.00 0.18 0.00 89 1015.7
20240722092020 17 97 0.0 0.0 0.00 0.18 0.18 89 1015.8
20240722091525 17 97 0.0 0.0 0.00 0.18 0.18 89 1015.8
20240722091050 17 97 0.0 0.0 0.00 0.18 0.18 89 1015.8
20240722090533 17 98 0.0 0.0 0.00 0.18 0.18 90 1015.8
20240722090019 17 98 0.0 0.0 0.00 0.18 0.18 90 1015.9
20240722085524 17 98 0.0 0.0 0.00 0.18 0.18 89 1015.9
20240722085030 17 98 0.0 0.0 0.00 0.18 0.18 89 1015.9
20240722084534 17 98 0.0 0.0 0.00 0.18 0.18 89 1016.0
20240722084039 17 98 0.0 0.0 0.00 0.18 0.18 89 1016.0
20240722083522 17 98 0.0 0.0 0.00 0.18 0.18 89 1016.0
20240722083030 17 98 0.0 0.0 0.00 0.18 0.18 89 1015.9
20240722082534 17 98 0.0 0.0 0.00 0.18 0.18 89 1016.0
20240722082020 17 98 0.0 0.0 0.00 0.18 0.18 89 1016.0
20240722081524 17 98 0.0 0.0 0.00 0.18 0.18 89 1016.1
20240722081049 17 98 0.0 0.0 0.00 0.18 0.18 89 1016.2
20240722080550 17 98 0.0 0.0 0.00 0.18 0.18 89 1016.2
20240722080035 17 98 0.0 0.0 0.00 0.18 0.18 89 1016.2
20240722075539 17 98 0.0 0.0 0.00 0.18 0.18 89 1016.3
20240722075023 17 98 0.0 0.0 0.00 0.18 0.18 89 1016.3
20240722074547 17 98 0.0 0.0 0.00 0.18 0.18 89 1016.3
20240722074030 17 98 0.0 0.0 0.00 0.18 0.18 89 1016.4
20240722073533 17 98 0.0 0.0 0.00 0.18 0.18 89 1016.4
20240722073038 17 98 0.0 0.0 0.00 0.18 0.18 88 1016.4
20240722072541 17 98 0.0 0.0 0.00 0.18 0.18 88 1016.5
20240722072025 17 98 0.0 0.0 0.00 0.18 0.18 89 1016.6
20240722071531 18 98 0.0 0.0 0.00 0.18 0.18 89 1016.6
20240722071019 18 98 0.0 0.0 0.00 0.18 0.18 89 1016.6
20240722070525 18 98 0.0 0.0 0.00 0.18 0.18 88 1016.6
20240722070032 18 98 0.0 0.0 0.00 0.18 0.18 88 1016.7
20240722065518 18 98 0.0 0.0 0.00 0.18 0.18 88 1016.6
20240722065023 18 98 0.0 0.0 0.00 0.18 0.18 88 1016.7
20240722064528 18 98 0.0 0.0 0.00 0.18 0.18 88 1016.9
20240722064054 18 98 0.0 0.0 0.00 0.18 0.18 88 1016.9
20240722063535 18 98 0.0 0.0 0.00 0.18 0.18 88 1016.9
20240722063020 18 98 0.0 0.0 0.00 0.18 0.18 88 1016.8
20240722062525 18 98 0.0 0.0 0.00 0.18 0.18 88 1016.9
20240722062051 18 98 0.0 0.0 0.00 0.18 0.18 88 1016.9
20240722061519 18 98 0.0 0.0 0.00 0.18 0.18 88 1016.8
20240722061024 18 98 0.0 0.0 0.00 0.18 0.18 88 1016.9
20240722060528 18 98 0.0 0.0 0.00 0.18 0.18 88 1017.0
20240722060034 18 98 0.0 0.0 0.00 0.18 0.18 88 1016.9
20240722055519 18 98 0.0 0.0 0.00 0.18 0.18 88 1016.9
20240722055025 18 98 0.0 0.0 0.00 0.18 0.18 88 1017.0
20240722054529 18 98 0.0 0.0 0.00 0.18 0.18 88 1017.1
20240722054033 18 98 0.0 0.0 0.00 0.18 0.18 88 1017.1
20240722053531 18 98 0.0 0.0 0.00 0.18 0.18 88 1017.1
20240722053028 18 98 0.0 0.0 0.00 0.18 0.18 88 1017.2
20240722052531 18 98 0.0 0.0 0.00 0.18 0.18 88 1017.2
20240722052056 18 98 0.0 0.0 0.00 0.18 0.18 88 1017.2
20240722051524 18 98 0.0 0.0 0.00 0.18 0.18 88 1017.2
20240722051029 18 98 0.0 0.0 0.00 0.18 0.18 88 1017.2
20240722050533 18 98 0.0 0.0 0.00 0.18 0.18 88 1017.2
20240722050021 18 98 0.0 0.0 0.00 0.18 0.18 88 1017.2
20240722045526 18 98 0.0 0.0 0.00 0.18 0.18 87 1017.2